This demonstration page uses our WeatherBlox Daily Observations layout. Learn more.

Left ArrowRight Arrow

Hourly Observations for April 1, 2022

Temp ( °F °C ) Dew Point ( °F °C ) Humidity (%) Winds ( mph kmh ) Pressure ( in mb ) Visibility ( mi km ) Precip ( " mm )
12:52 am 00:52 Clear 28 -2.2 25 -3.9 88 88 S 3 6 29.98 1015 10 16 0.00 0.00
1:52 am 01:52 Clear 26 -3.3 24 -4.4 92 92 SSE 5 7 29.98 1015 10 16 0.00 0.00
2:52 am 02:52 Clear 28 -2.2 25 -3.9 88 88 S 5 7 29.99 1016 10 16 0.00 0.00
3:52 am 03:52 Clear 27 -2.8 24 -4.4 89 89 S 5 7 30.00 1016 10 16 0.00 0.00
4:52 am 04:52 Clear 26 -3.3 24 -4.4 92 92 S 5 7 30.00 1016 10 16 0.00 0.00
5:52 am 05:52 Clear 26 -3.3 23 -5 88 88 SSE 3 6 30.02 1017 10 16 0.00 0.00
6:52 am 06:52 Clear 27 -2.8 24 -4.4 89 89 SSE 8 13 30.05 1018 10 16 0.00 0.00
7:52 am 07:52 Sunny 29 -1.7 28 -2.2 96 96 ESE 3 6 30.08 1019 8 13 0.00 0.00
8:52 am 08:52 Sunny 35 1.7 30 -1.1 82 82 SE 5 7 30.09 1019 10 16 0.00 0.00
9:52 am 09:52 Sunny 41 5 33 0.6 73 73 Calm 30.10 1019 10 16 0.00 0.00
10:52 am 10:52 Sunny 46 7.8 33 0.6 61 61 Calm 30.11 1020 10 16 0.00 0.00
11:52 am 11:52 Sunny 49 9.4 31 -0.6 50 50 SSW 6 9 30.11 1020 10 16 0.00 0.00
12:52 pm 12:52 Sunny 51 10.6 30 -1.1 44 44 Calm 30.10 1019 10 16 0.00 0.00
1:52 pm 13:52 Sunny 54 12.2 30 -1.1 40 40 W 3 6 30.08 1019 10 16 0.00 0.00
2:52 pm 14:52 Sunny 56 13.3 30 -1.1 37 37 Calm 30.05 1018 10 16 0.00 0.00
3:52 pm 15:52 Sunny 58 14.4 30 -1.1 35 35 Calm 30.03 1017 10 16 0.00 0.00
4:52 pm 16:52 Sunny 59 15 30 -1.1 33 33 SSE 6 9 30.01 1016 10 16 0.00 0.00
5:52 pm 17:52 Sunny 59 15 31 -0.6 35 35 S 7 11 30.01 1016 10 16 0.00 0.00
6:52 pm 18:52 Sunny 58 14.4 32 0 38 38 SSE 3 6 30.00 1016 10 16 0.00 0.00
7:52 pm 19:52 Clear 51 10.6 31 -0.6 46 46 SE 7 11 30.00 1016 10 16 0.00 0.00
8:52 pm 20:52 Clear 48 8.9 31 -0.6 52 52 SE 7 11 30.01 1016 10 16 0.00 0.00
9:52 pm 21:52 Clear 50 10 31 -0.6 48 48 SE 9 15 30.02 1017 10 16 0.00 0.00
10:52 pm 22:52 Clear 51 10.6 28 -2.2 41 41 SE 13 20 29.99 1016 10 16 0.00 0.00
11:52 pm 23:52 Mostly Cloudy 50 10 29 -1.7 44 44 SSE 10 17 30.00 1016 10 16 0.00 0.00

Powered by AerisWeather